Regional Weather Roundup
Issued by NWS Grand Forks, ND

Home | Current Version | Previous Version | Graphics & Text | Print | Product List | Glossary On
Versions: 1 2 3 4 5 6 7 8 9 10 11 12 13 14 15 16 17 18 19 20 21 22 23 24 25 26 27 28 29 30 31 32 33 34 35 36 37 38 39 40 41 42 43 44 45 46 47 48 49 50
962
ASUS43 KFGF 240310
RWRFGF
PRAIRIE TO PINES  WEATHER ROUNDUP
NATIONAL WEATHER SERVICE EASTERN NORTH DAKOTA/GRAND FORKS ND
1000 PM CDT MON MAY 23 2016

 **SATELLITE DATA USED TO AUGMENT SKY COVER AT AUTOMATED STATIONS**
 *****  WEATHER ACROSS EASTERN NORTH DAKOTA  *****

CITY           SKY/WX    TMP DP  RH WIND       PRES   REMARKS
GRAND FORKS    PTCLDY    65  52  62 N8        29.68R
GRAND FRKS AFB CLOUDY    68  48  47 VRB5      29.70R
GRAND FRKS NWS   N/A     66 N/A N/A MISG        N/A
DEVILS LAKE    CLEAR     62  47  57 SE5       29.70R
FARGO          PTCLDY    72  45  37 E10       29.67S
WAHPETON ARPT  CLOUDY    72  48  43 N7        29.69R
$$

 ***** WEATHER ACROSS CENTRAL AND WESTERN NORTH DAKOTA  *****

CITY           SKY/WX    TMP DP  RH WIND       PRES   REMARKS
BISMARCK       CLOUDY    67  39  35 W17G24    29.74R
MINOT          MOCLDY    64  43  46 VRB3      29.71R
JAMESTOWN      CLEAR     62  50  64 N10       29.70R
MINOT AFB      CLOUDY    60  39  46 SW3       29.69R
GARRISON         N/A     57  44  62 CALM      29.71S
WILLISTON      CLEAR     59  37  44 W8        29.72R
DICKINSON      CLEAR     51  34  52 NW8       29.73R
HETTINGER      CLOUDY    56  40  55 NE12      29.75R
$$

 *****  OTHER AIRPORT OBSERVATIONS IN OUR AREA  *****

CITY           SKY/WX    TMP DP  RH WIND       PRES   REMARKS
WALHALLA       FAIR      68  37  32 W3        29.67R
GRAFTON AIRPOR MOCLDY    64  54  68 E6        29.69R
VALLEY CITY AR FAIR      63  50  63 N9        29.73R
CANDO          NOT AVBL
CAVALIER APRT  FAIR      68  46  45 S3        29.67R
GWINNER        FAIR      66  57  72 S6        29.69S
ROLLA          FAIR      55  41  58 CALM      29.72R
 ***** THE ABOVE OBSERVATIONS ARE NON NWS ARE NOT QUALITY
       CONTROLLED AND MAY MIS-REPORT RAIN FOR SNOW...
$$

  *****  WEATHER ACROSS NORTHERN MINNESOTA  *****

CITY           SKY/WX    TMP DP  RH WIND       PRES   REMARKS
FLAG ISLAND    CLOUDY    64  54  68 SE5       29.68R
WARROAD        PTCLDY    63  52  67 S3        29.70R
ROSEAU         CLOUDY    63  48  59 S3        29.70R
HALLOCK        CLOUDY    70  46  43 S16G25    29.70R
THF RVR FALLS  CLOUDY    68  52  56 SE5       29.72R
BAUDETTE       MOCLDY    61  49  64 CALM      29.70R
WASKISH        CLOUDY    61  55  82 MISG      29.72R
CROOKSTON      CLEAR     72  46  40 SE3       29.69R
STEPHEN NDAWN    N/A     66  50  55 NW7         N/A
GREENBUSH NDAW   N/A     66  50  55 NW14        N/A
$$
  *****  WEATHER ACROSS CENTRAL AND WEST MINNESOTA  *****

CITY           SKY/WX    TMP DP  RH WIND       PRES   REMARKS
FOSSTON        MOCLDY    64  54  68 CALM      29.72R
BEMIDJI        CLOUDY    61  53  75 CALM      29.73S
PARK RAPIDS    MOCLDY    72  56  57 S10       29.72R
ELBOW LAKE     FAIR      67  53  59 SW5       29.72R
WADENA         CLOUDY    64  57  77 CALM      29.73R
DETROIT LAKES  CLOUDY    70  54  56 N5        29.73R
MOORHEAD       CLOUDY    70  54  56 E5        29.70R
FERGUS FALLS   CLOUDY    72  54  53 S3        29.67R
MORRIS MN      MOCLDY    70  54  56 SW6       29.72R
STAPLES        CLOUDY    64  61  88 SE5       29.74R
$$
  *****  WEATHER ELSEWHERE ACROSS MINNESOTA  *****

CITY           SKY/WX    TMP DP  RH WIND       PRES   REMARKS
DULUTH         LGT RAIN  63  60  90 W7        29.78R
INTRNTL FALLS  CLOUDY    62  56  80 SE3       29.72R
ELY            LGT RAIN  64  55  72 E3        29.77R
CLOQUET        TSTM      63  59  88 NE5       29.75F
WHEATON        CLOUDY    72  55  56 S6        29.72R
BRAINERD       CLOUDY    62  61  96 S3        29.74R
HIBBING        CLOUDY    65  59  81 S5        29.75R
ALEXANDRIA     LGT RAIN  68  61  78 SE10      29.75R
SAINT CLOUD    CLOUDY    64  60  87 S10       29.78R
MINNEAPOLIS    MOCLDY    67  59  75 NE6       29.80R
$$

  *****  WEATHER ACROSS SOUTH DAKOTA  *****

CITY           SKY/WX    TMP DP  RH WIND       PRES   REMARKS
SIOUX FALLS    CLOUDY    65  61  87 S8        29.77R
BROOKINGS      MOCLDY    65  57  75 S7        29.76R
WATERTOWN      CLOUDY    65  56  72 SE3       29.73S
HURON          CLEAR     64  55  72 SE6       29.71R
SISSETON         N/A     65  54  67 SW6       29.69R
ABERDEEN       CLEAR     64  53  67 S8        29.70R
MITCHELL       CLOUDY    67  60  78 S6        29.73R
PIERRE         CLEAR     66  47  50 S7        29.69R
MOBRIDGE       CLEAR     62  52  69 SE7       29.66R
RAPID CITY     CLEAR     58  29  33 W3        29.75R
$$

  *****  SOME WEATHER IN NEARBY STATES *****

CITY           SKY/WX    TMP DP  RH WIND       PRES   REMARKS
GLASGOW MT     CLEAR     52  41  66 W9        29.72R
GREAT FALLS MT LGT RAIN  44  42  93 CALM      29.85R
CHEYENNE WY    CLEAR     50  38  63 SW8       29.94R
SCOTTSBLUFF NE CLEAR     49  45  86 SE6       29.87R
OMAHA NE       CLOUDY    68  62  81 S10       29.80R
DES MOINES IA  CLOUDY    69  59  70 SE7       29.84R
DAVENPORT IA   PTCLDY    65  47  52 S8        29.89R
CHICAGO IL     MOCLDY    65  40  39 SE9       29.91S
EAU CLAIRE WI  PTCLDY    66  62  87 S3        29.80S
LA CROSSE WI   MOCLDY    72  57  59 S9        29.81R
$$

  *****  SOME NATIONAL WEATHER *****

CITY           SKY/WX    TMP DP  RH WIND       PRES   REMARKS
LA GUARDIA NY  CLOUDY    66  48  52 SW5       29.92R
RALEIGH NC     PTCLDY    54  52  93 CALM      30.04R
ATLANTA GA     PTCLDY    72  51  47 CALM      30.03R
NEW ORLEANS LA PTCLDY    76  64  66 SE9       29.98R
OKLAHOMA CITY  MOCLDY    71  69  93 S13       29.85R
ALBUQUERQUE NM PTCLDY    77  14   9 SW10      29.86R
SALT LAKE CITY PTCLDY    61  37  41 N8        29.80F
LOS ANGELES CA PTCLDY    60  51  72 W9        29.89R
BOISE ID       PTCLDY    64  32  30 NW7       29.80R
SEATTLE WA     CLOUDY    61  46  57 NE8       29.93S
$$

*** WEATHER ACROSS MANITOBA...SASKATCHEWAN AND ONTARIO ***
                ***ONTARIO***

CITY           SKY/WX    TMP DP  RH WIND       PRES   REMARKS
GERALDTON      NOT AVBL
THUNDER BAY    LGT RAIN  66  59  77 SW9       29.75R
SIOUX LOOKOUT  MOCLDY    55  54  94 S3        29.71R
TORONTO        CLEAR     64  41  42 NW10      29.97R
BIG TROUT LK   LGT RAIN  39  37  93 N9G18     29.76
PICKLE LAKE    NOT AVBL
DRYDEN         CLEAR     64  50  59 S7        29.72R
KENORA         MOCLDY    64  50  59 SE5       29.71R
$$
                *** MANITOBA***

CITY           SKY/WX    TMP DP  RH WIND       PRES   REMARKS
BRANDON        PTCLDY    64  36  34 SW9       29.67R
DAUPHIN        LGT RAIN  64  43  45 SW6       29.65R
ISLAND LAKE    CLOUDY    43  41  93 NE8       29.84R
PILOT MOUND      N/A     61  39  44 NW6         N/A
THE PAS        CLOUDY    46  43  87 NE8G17    29.78R
THOMPSON       NOT AVBL
WINNIPEG       PTCLDY    64  48  55 E7        29.65R
LYNN LAKE      CLOUDY    45  36  70 NE12G20   29.89R
CHURCHILL      MOCLDY    28  25  86 N8        30.01R WCI  20
GILLAM         CLOUDY    34  28  80 NE14      29.95R WCI  24
$$
                ***SASKATCHEWAN***

CITY           SKY/WX    TMP DP  RH WIND       PRES   REMARKS
ESTEVAN        PTCLDY    55  39  54 SW8       29.69R
KINDERSLEY     MOCLDY    48  45  87 N13       29.68R
LLOYDMINSTER   CLOUDY    50  46  87 N9        29.75R
PRINCE ALBERT  LGT RAIN  52  48  87 NE13G20   29.69R
REGINA         MOCLDY    52  45  76 S8        29.63R
YORKTON        CLEAR     55  45  67 SE7       29.64R
N. BATTLEFORD  CLOUDY    50  50 100 N6        29.72R
LA RONGE       NOT AVBL
SASKATOON      CLOUDY    55  43  62 NE6       29.65R
SWIFT CURRENT  CLOUDY    48  46  93 W12       29.64R
$$
NOTE: THESE ARE AUTOMATED STATIONS WITH LIMITED QUALITY CONTROL
      "FAIR" INDICATES FEW OR NO CLOUDS BELOW 12,000 FEET WITH NO
      SIGNIFICANT WEATHER AND/OR OBSTRUCTIONS TO VISIBILITY.
      SKY/WX - SKY CONDITION AND SIGNIFICANT WEATHER.
      TMP - AIR TEMPERATURE.    DP   - DEWPOINT TEMPERATURE.
      RH  - RELATIVE HUMIDITY.  PRES - PRESSURE.
      HX  - HEAT INDEX.         WCI  - WIND CHILL INDEX.
$




USA.gov is the U.S. government's official web portal to all federal, state and local government web resources and services.